EW6103 Weather Reports


Display with metric or nautical units.
time (UTC)temp
F
wind
direction
speed
MPH
gust
MPH
rain 1hr
in
rain 24hr
in
rain mn
in
humidity
%
barometer
mb
20260508134008 58 225 3.0 5.0 0.00 0.00 0.00 75 1017.2
20260508133010 56 270 3.0 4.0 0.00 0.00 0.00 75 1017.3
20260508132008 56 180 2.0 4.0 0.00 0.00 0.00 77 1017.6
20260508130015 55 180 1.0 3.0 0.00 0.00 0.00 75 1017.4
20260508125008 56 90 1.0 3.0 0.00 0.00 0.00 76 1017.6
20260508124006 56 90 1.0 3.0 0.00 0.00 0.00 76 1017.6
20260508123012 56 90 1.0 4.0 0.00 0.00 0.00 77 1017.5
20260508122008 55 180 1.0 3.0 0.00 0.00 0.00 76 1017.6
20260508121009 55 180 2.0 4.0 0.00 0.00 0.00 77 1017.5
20260508120013 55 180 1.0 3.0 0.00 0.00 0.00 80 1017.5
20260508115008 55 270 1.0 2.0 0.00 0.00 0.00 78 1017.5
20260508113010 54 0 1.0 4.0 0.00 0.00 0.00 80 1017.5
20260508112011 54 180 0.0 3.0 0.00 0.00 0.00 81 1017.6
20260508110012 53 0 2.0 4.0 0.00 0.00 0.00 83 1017.6
20260508103010 52 0 2.0 4.0 0.00 0.00 0.00 85 1017.8
20260508102009 52 180 2.0 3.0 0.00 0.00 0.00 87 1017.7
20260508101006 51 0 1.0 3.0 0.00 0.00 0.00 87 1017.9
20260508100015 51 180 2.0 4.0 0.00 0.00 0.00 87 1017.9
20260508095009 51 0 2.0 4.0 0.00 0.00 0.00 89 1017.9
20260508094009 51 270 1.0 4.0 0.00 0.00 0.00 91 1017.9
20260508093010 51 180 4.0 7.0 0.00 0.00 0.00 91 1017.9
20260508092008 49 270 4.0 6.0 0.00 0.00 0.00 95 1017.2
20260508091008 49 270 4.0 6.0 0.00 0.00 0.00 95 1017.2
20260508090012 49 270 4.0 6.0 0.00 0.00 0.00 95 1017.2
20260508084009 49 270 4.0 6.0 0.00 0.00 0.00 95 1017.2
20260508083010 49 270 4.0 6.0 0.00 0.00 0.00 95 1017.2
20260508082010 49 270 4.0 6.0 0.00 0.00 0.00 95 1017.2
20260508081008 49 270 4.0 6.0 0.00 0.00 0.00 95 1017.2
20260508080010 49 270 4.0 6.0 0.00 0.00 0.00 95 1017.2
20260508075008 49 270 4.0 6.0 0.00 0.00 0.00 95 1017.2
20260508074008 49 270 4.0 6.0 0.00 0.00 0.00 95 1017.2
20260508073011 49 270 4.0 6.0 0.00 0.00 0.00 95 1017.2
20260508072009 49 270 4.0 6.0 0.00 0.00 0.00 95 1017.2
20260508071008 49 270 4.0 6.0 0.00 0.00 0.00 95 1017.2
20260508070012 49 270 4.0 6.0 0.00 0.00 0.00 95 1017.2
20260508065008 49 180 4.0 5.0 0.00 0.00 0.00 94 1017.0
20260508064008 49 270 4.0 6.0 0.00 0.00 0.00 93 1016.9
20260508063010 49 270 4.0 5.0 0.00 0.00 0.00 91 1016.9
20260508060013 49 180 4.0 5.0 0.00 0.00 0.00 89 1016.5
20260508055008 49 180 4.0 6.0 0.00 0.00 0.00 88 1016.3
20260508054013 50 180 4.0 5.0 0.00 0.00 0.00 89 1016.3
20260508053010 49 180 4.0 5.0 0.00 0.00 0.00 89 1016.0
20260508052009 50 180 4.0 5.0 0.00 0.00 0.00 88 1016.1
20260508050011 49 180 4.0 5.0 0.00 0.00 0.00 89 1016.1
20260508045007 49 270 3.0 4.0 0.00 0.00 0.00 89 1016.0
20260508044008 49 270 4.0 4.0 0.00 0.00 0.00 89 1016.1
20260508043010 49 270 4.0 5.0 0.00 0.00 0.00 89 1015.9
20260508042008 49 180 3.0 5.0 0.00 0.00 0.00 89 1015.8
20260508041008 49 180 4.0 4.0 0.00 0.00 0.00 89 1015.8
20260508040012 49 0 4.0 5.0 0.00 0.00 0.00 89 1015.9
20260508035007 49 180 4.0 5.0 0.00 0.00 0.00 89 1015.7
20260508034010 49 270 4.0 6.0 0.00 0.00 0.00 90 1015.6
20260508033010 49 180 4.0 5.0 0.00 0.00 0.00 90 1015.6
20260508032008 49 180 4.0 6.0 0.00 0.00 0.00 89 1015.6
20260508030011 49 270 4.0 4.0 0.00 0.00 0.00 90 1015.7
20260508025006 49 270 4.0 5.0 0.00 0.00 0.00 90 1015.5
20260508024008 49 270 5.0 8.0 0.00 0.00 0.00 90 1015.5
20260508023009 49 270 5.0 8.0 0.00 0.00 0.00 90 1015.6
20260508022007 50 180 4.0 6.0 0.00 0.00 0.00 91 1015.5
20260508021008 50 270 4.0 6.0 0.00 0.00 0.00 91 1015.4
20260508020014 49 180 5.0 8.0 0.00 0.00 0.00 91 1015.3
20260508014008 50 180 4.0 5.0 0.00 0.00 0.00 93 1015.2
20260508013008 50 180 5.0 7.0 0.00 0.00 0.00 92 1015.2
20260508012007 50 225 4.0 8.0 0.00 0.00 0.00 92 1015.1
20260508005008 50 270 4.0 5.0 0.00 0.00 0.00 92 1015.2
20260508003009 51 180 4.0 6.0 0.00 0.00 0.00 91 1015.1
20260508002009 51 180 2.0 4.0 0.00 0.00 0.00 90 1015.0
20260508001009 51 180 0.0 1.0 0.00 0.00 0.00 88 1015.0
20260508000012 51 0 0.0 2.0 0.00 0.00 0.00 88 1015.1
20260507235007 50 180 1.0 3.0 0.00 0.00 0.00 91 1015.0
20260507234008 50 180 2.0 3.0 0.00 0.00 0.00 91 1015.0
20260507232009 51 270 1.0 3.0 0.00 0.00 0.00 88 1015.0
20260507231009 51 270 1.0 3.0 0.00 0.00 0.00 89 1015.2
20260507230016 51 270 2.0 3.0 0.00 0.00 0.00 90 1015.3
20260507225009 51 270 2.0 3.0 0.00 0.00 0.00 91 1015.2
20260507224008 51 270 1.0 2.0 0.00 0.00 0.00 91 1015.1
20260507223009 51 270 0.0 1.0 0.00 0.00 0.00 89 1014.8
20260507222008 51 0 0.0 2.0 0.00 0.00 0.00 88 1014.9
20260507221006 52 0 2.0 3.0 0.00 0.00 0.00 86 1014.6
20260507220014 52 0 1.0 3.0 0.00 0.00 0.00 85 1014.7
20260507215009 53 0 1.0 2.0 0.00 0.00 0.00 84 1014.7
20260507211009 53 0 2.0 5.0 0.00 0.00 0.00 82 1014.4
20260507210012 53 0 2.0 5.0 0.00 0.00 0.00 82 1014.1
20260507205007 54 0 1.0 2.0 0.00 0.00 0.00 83 1014.1
20260507204009 54 180 2.0 4.0 0.00 0.00 0.00 84 1013.9
20260507203007 54 270 2.0 4.0 0.00 0.00 0.00 84 1013.8
20260507201009 54 270 2.0 4.0 0.00 0.00 0.00 85 1013.7
20260507200012 53 270 1.0 3.0 0.00 0.00 0.00 86 1013.6
20260507195006 53 45 0.0 1.0 0.00 0.00 0.00 85 1013.5
20260507194009 52 180 0.0 1.0 0.00 0.00 0.00 86 1013.5
20260507193010 52 270 0.0 2.0 0.00 0.00 0.00 86 1013.5
20260507191012 53 180 2.0 4.0 0.00 0.00 0.00 82 1013.1
20260507190013 54 270 2.0 4.0 0.00 0.00 0.00 80 1012.9
20260507185007 55 270 2.0 4.0 0.00 0.00 0.00 77 1012.7
20260507183008 57 0 2.0 6.0 0.00 0.00 0.00 74 1012.3
20260507182009 58 180 4.0 6.0 0.00 0.00 0.00 72 1012.1
20260507181009 58 180 4.0 9.0 0.00 0.00 0.00 70 1012.1
20260507180019 59 180 7.0 11.0 0.00 0.00 0.00 68 1012.0
20260507175009 61 180 4.0 6.0 0.00 0.00 0.00 64 1011.6
20260507174010 61 180 2.0 4.0 0.00 0.00 0.00 63 1011.3
20260507173014 62 270 5.0 8.0 0.00 0.00 0.00 61 1011.2
20260507172010 62 180 5.0 8.0 0.00 0.00 0.00 59 1011.1
20260507171009 64 180 4.0 7.0 0.00 0.00 0.00 57 1010.9
20260507170012 64 180 4.0 10.0 0.00 0.00 0.00 57 1010.8
20260507165011 64 180 5.0 8.0 0.00 0.00 0.00 57 1010.7
20260507164009 64 270 6.0 11.0 0.00 0.00 0.00 55 1010.6
20260507163012 64 180 9.0 11.0 0.00 0.01 0.00 53 1010.5
20260507162008 65 270 4.0 8.0 0.00 0.01 0.00 55 1010.4
20260507161008 65 180 7.0 12.0 0.00 0.06 0.00 52 1010.4
20260507160014 66 270 7.0 11.0 0.00 0.06 0.00 52 1010.3
20260507155009 66 0 10.0 14.0 0.00 0.06 0.00 51 1010.3
20260507154010 67 270 8.0 11.0 0.00 0.07 0.00 54 1010.3
20260507153010 65 180 6.0 10.0 0.00 0.07 0.00 55 1010.5
20260507151008 64 180 7.0 12.0 0.00 0.07 0.00 56 1010.4
20260507145007 67 180 7.0 10.0 0.00 0.07 0.00 58 1010.3
20260507143009 66 270 9.0 12.0 0.00 0.07 0.00 57 1010.4
20260507142010 67 180 8.0 12.0 0.00 0.07 0.00 54 1010.3
20260507141007 66 180 9.0 14.0 0.00 0.07 0.00 57 1010.2
20260507140013 65 180 8.0 12.0 0.00 0.07 0.00 59 1010.2
20260507135009 68 270 6.0 9.0 0.00 0.10 0.00 57 1010.3